Weather History for Cecil Field, FL

Change the Weather History Date:

Wednesday, May 8, 2013

  Actual Average (KJAX) Record (KJAX)
Temperature  
Mean Temperature 66 °F 72 °F  
Max Temperature 80 °F 84 °F 96 °F (1955)
Min Temperature 51 °F 60 °F 45 °F (1992)
Degree Days  
Heating Degree Days 0 0  
Month to date heating degree days 3  
Since 1 July heating degree days 1347  
Cooling Degree Days 0 7  
Month to date cooling degree days 53  
Year to date cooling degree days 249  
Growing Degree Days 16 (Base 50)    
Moisture  
Dew Point 56 °F    
Average Humidity 83    
Maximum Humidity 100    
Minimum Humidity 42    
Precipitation  
Precipitation 0.00 in 0.07 in 1.29 in (1966)
Month to date precipitation 0.52  
Year to date precipitation 13.60  
Snow  
Snow 0.00 in 0.00 in 0.00 in (2002)
Month to date snowfall 0.0  
Since 1 July snowfall T  
Snow Depth -    
Sea Level Pressure  
Sea Level Pressure 30.06 in    
Wind  
Wind Speed 2 mph (WSW)    
Max Wind Speed 15 mph    
Max Gust Speed -    
Visibility 9 miles    
Events      
T = Trace of Precipitation, MM = Missing Value Source: NWS Daily Summary

Daily Weather History Graph

Daily Weather History Graph

Search for Another Location

Airport:

Trip Planner

Search our weather history database for the weather conditions in past years. The results will help you decide how hot, cold, wet, or windy it might be!

Date:

Astronomy

May. 08, 2013 Rise Set
Actual Time 6:38 AM EDT 8:10 PM EDT
Civil Twilight 6:12 AM EDT 8:35 PM EDT
Nautical Twilight 5:41 AM EDT 9:06 PM EDT
Astronomical Twilight 5:09 AM EDT 9:39 PM EDT
Moon 5:40 AM EDT (5/8) 7:10 PM EDT (5/8)
Length of Visible Light 14h 23m
Length of Day
13h 31m
Waning Crescent, 2% of the Moon is Illuminated
May 8
Waning Crescent
May 9
New
May 18
First Quarter
May 25
Full
May 31
Last Quarter

Hourly Weather History & Observations

Time (EDT) Temp. Heat Index Dew Point Humidity Pressure Visibility Wind Dir Wind Speed Gust Speed Precip Events Conditions
12:15 AM 59.0 °F - 57.2 °F 94% 30.04 in 10.0 mi Calm Calm - N/A   Clear
12:35 AM 57.2 °F - 55.4 °F 94% 30.04 in 10.0 mi Calm Calm - N/A   Clear
12:55 AM 57.2 °F - 57.2 °F 100% 30.04 in 10.0 mi Calm Calm - N/A   Clear
1:15 AM 55.4 °F - 55.4 °F 100% 30.04 in 10.0 mi Calm Calm - N/A   Clear
1:35 AM 55.4 °F - 55.4 °F 100% 30.03 in 10.0 mi Calm Calm - N/A   Clear
1:55 AM 55.4 °F - 55.4 °F 100% 30.03 in 10.0 mi Calm Calm - N/A   Clear
2:15 AM 55.4 °F - 55.4 °F 100% 30.03 in 9.0 mi Calm Calm - N/A   Clear
2:35 AM 55.4 °F - 55.4 °F 100% 30.02 in 8.0 mi Calm Calm - N/A   Clear
2:55 AM 55.4 °F - 55.4 °F 100% 30.01 in 6.0 mi Calm Calm - N/A   Clear
3:15 AM 53.6 °F - 53.6 °F 100% 30.02 in 7.0 mi Calm Calm - N/A   Clear
3:35 AM 53.6 °F - 53.6 °F 100% 30.01 in 6.0 mi Calm Calm - N/A   Clear
3:55 AM 53.6 °F - 53.6 °F 100% 30.02 in 8.0 mi Calm Calm - N/A   Clear
4:15 AM 53.6 °F - 53.6 °F 100% 30.02 in 8.0 mi Calm Calm - N/A   Clear
4:35 AM 53.6 °F - 53.6 °F 100% 30.03 in 7.0 mi Calm Calm - N/A   Clear
4:55 AM 53.6 °F - 53.6 °F 100% 30.03 in 5.0 mi Calm Calm - N/A   Clear
5:15 AM 53.6 °F - 53.6 °F 100% 30.03 in 7.0 mi Calm Calm - N/A   Clear
5:35 AM 51.8 °F - 51.8 °F 100% 30.03 in 5.0 mi Calm Calm - N/A   Clear
5:55 AM 51.8 °F - 51.8 °F 100% 30.04 in 7.0 mi Calm Calm - N/A   Clear
6:15 AM 51.8 °F - 51.8 °F 100% 30.05 in 4.0 mi Calm Calm - N/A   Clear
6:35 AM 51.8 °F - 51.8 °F 100% 30.05 in 4.0 mi Calm Calm - N/A   Clear
6:50 AM 53.6 °F - 53.6 °F 100% 30.05 in 10.0 mi Calm Calm - N/A   Clear
7:55 AM 57.2 °F - 57.2 °F 100% 30.09 in 10.0 mi Calm Calm - N/A   Clear
8:50 AM 62.6 °F - 59.0 °F 88% 30.10 in 10.0 mi Calm Calm - N/A   Clear
9:50 AM 68.0 °F - 60.8 °F 78% 30.11 in 10.0 mi Calm Calm - N/A   Clear
10:50 AM 73.4 °F - 57.2 °F 57% 30.11 in 10.0 mi West 11.5 mph - N/A   Scattered Clouds
11:50 AM 75.2 °F - 55.4 °F 50% 30.11 in 10.0 mi West 11.5 mph - N/A   Scattered Clouds
12:50 PM 77.0 °F - 55.4 °F 47% 30.10 in 10.0 mi West 11.5 mph - N/A   Scattered Clouds
1:50 PM 78.8 °F - 55.4 °F 44% 30.08 in 10.0 mi West 15.0 mph - N/A   Scattered Clouds
2:50 PM 78.8 °F - 55.4 °F 44% 30.07 in 10.0 mi West 9.2 mph - N/A   Scattered Clouds
3:50 PM 80.6 °F 80.5 °F 55.4 °F 42% 30.05 in 10.0 mi West 8.1 mph - N/A   Scattered Clouds
4:50 PM 78.8 °F - 55.4 °F 44% 30.04 in 10.0 mi WNW 12.7 mph - N/A   Scattered Clouds
5:50 PM 78.8 °F - 55.4 °F 44% 30.04 in 10.0 mi West 9.2 mph - N/A   Scattered Clouds
6:50 PM 77.0 °F - 55.4 °F 47% 30.05 in 10.0 mi West 11.5 mph - N/A   Scattered Clouds
7:50 PM 73.4 °F - 57.2 °F 57% 30.06 in 10.0 mi West 5.8 mph - N/A   Partly Cloudy
8:15 PM 69.8 °F - 59.0 °F 68% 30.06 in 10.0 mi Calm Calm - N/A   Clear
8:35 PM 66.2 °F - 59.0 °F 78% 30.07 in 10.0 mi Calm Calm - N/A   Clear
8:55 PM 64.4 °F - 59.0 °F 83% 30.08 in 10.0 mi Calm Calm - N/A   Clear
9:15 PM 62.6 °F - 59.0 °F 88% 30.09 in 10.0 mi Calm Calm - N/A   Clear
9:35 PM 62.6 °F - 59.0 °F 88% 30.09 in 10.0 mi SW 4.6 mph - N/A   Clear
9:55 PM 62.6 °F - 59.0 °F 88% 30.10 in 10.0 mi Calm Calm - N/A   Clear
10:15 PM 64.4 °F - 59.0 °F 83% 30.11 in 10.0 mi SW 5.8 mph - N/A   Clear
10:35 PM 66.2 °F - 59.0 °F 78% 30.11 in 10.0 mi SW 5.8 mph - N/A   Clear
10:55 PM 64.4 °F - 59.0 °F 83% 30.12 in 10.0 mi SW 4.6 mph - N/A   Clear
11:15 PM 66.2 °F - 59.0 °F 78% 30.12 in 10.0 mi SW 6.9 mph - N/A   Clear
11:55 PM 66.2 °F - 59.0 °F 78% 30.12 in 10.0 mi SW 6.9 mph - N/A   Clear